When you browse on this site, cookies collect data to enhance your experience and personalize the content and advertising you see.
Visit our Privacy Policy to learn more. By continuing to use the site, you agree to this use of cookies and data.
  • în România
  • Lista ţărilor
  • Pe 7 zile
  • Temperatura apei
  • Hartă satelitară
  • Meteo pe hartă
  • Widget-uri
  • user-avatar
    Intrare

    Meteo pe oră la Askim

    Astăzi, 18 Februarie, Luni

    Timp Temperatura Precipitaţii Vânt Presiune Umiditate
    00:00 +3°C° 0 mm 3 m/s 749 mmHg 98%
    01:00 +3°C° 0 mm 3 m/s 748 mmHg 98%
    02:00 +3°C° 0 mm 3 m/s 748 mmHg 97%
    03:00 +3°C° 0 mm 4 m/s 747 mmHg 97%
    04:00 +3°C° 0 mm 4 m/s 747 mmHg 97%
    05:00 +3°C° 0 mm 4 m/s 746 mmHg 97%
    06:00 +3°C° 0 mm 4 m/s 746 mmHg 97%
    07:00 +2°C° 0 mm 3 m/s 745 mmHg 97%
    08:00 +3°C° 0 mm 3 m/s 745 mmHg 97%
    09:00 +3°C° 0 mm 4 m/s 744 mmHg 97%
    10:00 +3°C° 0 mm 4 m/s 744 mmHg 97%
    11:00 +3°C° 0 mm 4 m/s 744 mmHg 97%
    12:00 +3°C° 0 mm 4 m/s 744 mmHg 96%
    13:00 +3°C° 0 mm 3 m/s 743 mmHg 97%
    14:00 +3°C° 0 mm 4 m/s 743 mmHg 96%
    15:00 +3°C° 0 mm 4 m/s 743 mmHg 96%
    16:00 +4°C° 0 mm 4 m/s 742 mmHg 95%
    17:00 +3°C° 0 mm 4 m/s 742 mmHg 95%
    18:00 +3°C° 0 mm 4 m/s 742 mmHg 95%
    19:00 +3°C° 0 mm 4 m/s 742 mmHg 96%
    20:00 +3°C° 0 mm 4 m/s 741 mmHg 96%
    21:00 +3°C° 0 mm 4 m/s 741 mmHg 96%
    22:00 +3°C° 0 mm 4 m/s 740 mmHg 96%
    23:00 +3°C° 0.1 mm 4 m/s 740 mmHg 95%

    Mâine, 19 Februarie, Marţi

    Timp Temperatura Precipitaţii Vânt Presiune Umiditate
    00:00 +3°C° 0.1 mm 4 m/s 739 mmHg 95%
    01:00 +2°C° 0.1 mm 5 m/s 739 mmHg 94%
    02:00 +2°C° 0.1 mm 5 m/s 738 mmHg 94%
    03:00 +2°C° 0.1 mm 5 m/s 738 mmHg 94%
    04:00 +2°C° 0.1 mm 5 m/s 737 mmHg 95%
    05:00 +2°C° 0 mm 5 m/s 736 mmHg 94%
    06:00 +2°C° 0 mm 5 m/s 736 mmHg 94%
    07:00 +2°C° 0 mm 5 m/s 735 mmHg 94%
    08:00 +2°C° 0 mm 5 m/s 734 mmHg 93%
    09:00 +2°C° 0 mm 5 m/s 734 mmHg 92%
    10:00 +2°C° 0 mm 5 m/s 733 mmHg 91%
    11:00 +3°C° 0.1 mm 5 m/s 733 mmHg 88%
    12:00 +3°C° 0.1 mm 5 m/s 732 mmHg 86%
    13:00 +3°C° 0.1 mm 5 m/s 732 mmHg 83%
    14:00 +4°C° 0 mm 4 m/s 732 mmHg 79%
    15:00 +4°C° 0 mm 4 m/s 732 mmHg 74%
    16:00 +4°C° 0 mm 4 m/s 732 mmHg 70%
    17:00 +3°C° 0 mm 4 m/s 733 mmHg 71%
    18:00 +2°C° 0 mm 3 m/s 733 mmHg 72%
    19:00 +1°C° 0 mm 3 m/s 734 mmHg 74%
    20:00 +1°C° 0 mm 2 m/s 734 mmHg 75%
    21:00 +1°C° 0 mm 2 m/s 735 mmHg 77%
    22:00 -1°C° 0 mm 2 m/s 736 mmHg 78%
    23:00 -1°C° 0 mm 2 m/s 737 mmHg 78%

    Poimâine, 20 Februarie, Miercuri

    Timp Temperatura Precipitaţii Vânt Presiune Umiditate
    00:00 -1°C° 0 mm 2 m/s 738 mmHg 77%
    01:00 -1°C° 0 mm 2 m/s 739 mmHg 77%
    02:00 -1°C° 0 mm 2 m/s 740 mmHg 75%
    03:00 -1°C° 0 mm 2 m/s 740 mmHg 73%
    04:00 -1°C° 0 mm 2 m/s 741 mmHg 71%
    05:00 -1°C° 0 mm 2 m/s 742 mmHg 70%
    06:00 -2°C° 0 mm 2 m/s 743 mmHg 69%
    07:00 -2°C° 0 mm 2 m/s 744 mmHg 68%
    08:00 -2°C° 0 mm 2 m/s 745 mmHg 63%
    09:00 -1°C° 0 mm 2 m/s 745 mmHg 58%
    10:00 +1°C° 0 mm 2 m/s 746 mmHg 52%
    11:00 +1°C° 0 mm 2 m/s 747 mmHg 50%
    12:00 +3°C° 0 mm 1 m/s 747 mmHg 47%
    13:00 +3°C° 0 mm 1 m/s 748 mmHg 44%
    14:00 +3°C° 0 mm 1 m/s 748 mmHg 48%
    15:00 +2°C° 0 mm 0 m/s 748 mmHg 51%
    16:00 +1°C° 0 mm 0 m/s 748 mmHg 54%
    17:00 +2°C° 0 mm 1 m/s 748 mmHg 56%
    18:00 +2°C° 0 mm 1 m/s 748 mmHg 59%
    19:00 +1°C° 0 mm 1 m/s 748 mmHg 61%
    20:00 +1°C° 0.4 mm 1 m/s 748 mmHg 68%
    21:00 -2°C° 0.4 mm 2 m/s 747 mmHg 76%
    22:00 -2°C° 0.4 mm 3 m/s 747 mmHg 83%
    23:00 -2°C° 0.6 mm 3 m/s 747 mmHg 84%

    21 Februarie, Joi

    Timp Temperatura Precipitaţii Vânt Presiune Umiditate
    00:00 -4°C° 0.6 mm 3 m/s 747 mmHg 85%
    01:00 -4°C° 0.6 mm 3 m/s 747 mmHg 86%
    02:00 -4°C° 0.2 mm 3 m/s 747 mmHg 86%
    03:00 -4°C° 0.2 mm 3 m/s 747 mmHg 86%
    04:00 -3°C° 0.2 mm 2 m/s 747 mmHg 86%
    05:00 -3°C° 0 mm 2 m/s 747 mmHg 87%
    06:00 -3°C° 0 mm 2 m/s 748 mmHg 87%
    07:00 -3°C° 0 mm 2 m/s 748 mmHg 87%
    08:00 -2°C° 0 mm 2 m/s 749 mmHg 86%
    09:00 -2°C° 0 mm 2 m/s 749 mmHg 85%
    10:00 -2°C° 0 mm 2 m/s 750 mmHg 84%
    11:00 -2°C° 0 mm 2 m/s 750 mmHg 84%
    12:00 -1°C° 0 mm 2 m/s 751 mmHg 84%
    13:00 -1°C° 0 mm 2 m/s 751 mmHg 83%
    14:00 -1°C° 0 mm 2 m/s 752 mmHg 84%
    15:00 -1°C° 0 mm 2 m/s 752 mmHg 85%
    16:00 +1°C° 0 mm 1 m/s 753 mmHg 86%
    17:00 +1°C° 0 mm 1 m/s 754 mmHg 88%
    18:00 0°C° 0 mm 1 m/s 755 mmHg 91%
    19:00 -1°C° 0 mm 1 m/s 755 mmHg 93%
    20:00 -1°C° 0 mm 1 m/s 756 mmHg 93%
    21:00 -1°C° 0 mm 1 m/s 757 mmHg 92%
    22:00 0°C° 0 mm 1 m/s 758 mmHg 91%
    23:00 -1°C° 0 mm 1 m/s 759 mmHg 92%

    22 Februarie, Vineri

    Timp Temperatura Precipitaţii Vânt Presiune Umiditate
    00:00 -1°C° 0 mm 1 m/s 760 mmHg 92%
    01:00 -1°C° 0 mm 1 m/s 761 mmHg 92%
    02:00 -1°C° 0 mm 1 m/s 761 mmHg 93%
    03:00 -1°C° 0 mm 1 m/s 762 mmHg 93%
    04:00 -1°C° 0 mm 1 m/s 762 mmHg 93%
    05:00 -1°C° 0 mm 1 m/s 762 mmHg 94%
    06:00 -2°C° 0 mm 1 m/s 763 mmHg 95%
    07:00 -2°C° 0 mm 1 m/s 763 mmHg 96%
    08:00 -1°C° 0 mm 1 m/s 763 mmHg 94%
    09:00 -2°C° 0 mm 2 m/s 764 mmHg 92%
    10:00 -1°C° 0 mm 2 m/s 764 mmHg 90%
    11:00 -1°C° 0 mm 2 m/s 764 mmHg 91%
    12:00 0°C° 0 mm 3 m/s 764 mmHg 91%
    13:00 0°C° 0 mm 4 m/s 763 mmHg 91%
    14:00 0°C° 0.1 mm 4 m/s 763 mmHg 92%
    15:00 +1°C° 0.1 mm 4 m/s 763 mmHg 93%
    16:00 +1°C° 0.1 mm 4 m/s 763 mmHg 94%
    17:00 +1°C° 0 mm 4 m/s 763 mmHg 95%
    18:00 +1°C° 0 mm 4 m/s 762 mmHg 95%
    19:00 +1°C° 0 mm 4 m/s 762 mmHg 96%
    20:00 +1°C° 0 mm 4 m/s 762 mmHg 96%
    21:00 +1°C° 0 mm 4 m/s 761 mmHg 96%
    22:00 +1°C° 0 mm 4 m/s 761 mmHg 96%
    23:00 +2°C° 0 mm 3 m/s 761 mmHg 96%

    23 Februarie, Sâmbătă

    Timp Temperatura Precipitaţii Vânt Presiune Umiditate
    00:00 +2°C° 0 mm 3 m/s 761 mmHg 96%
    01:00 +2°C° 0 mm 3 m/s 761 mmHg 97%
    02:00 +2°C° 0 mm 3 m/s 760 mmHg 96%
    03:00 +3°C° 0 mm 2 m/s 760 mmHg 95%
    04:00 +3°C° 0 mm 2 m/s 760 mmHg 95%
    05:00 +3°C° 0 mm 2 m/s 760 mmHg 94%
    06:00 +3°C° 0 mm 2 m/s 760 mmHg 92%
    07:00 +4°C° 0 mm 1 m/s 760 mmHg 91%
    08:00 +4°C° 0 mm 2 m/s 760 mmHg 89%
    09:00 +5°C° 0 mm 2 m/s 760 mmHg 87%
    10:00 +5°C° 0 mm 2 m/s 760 mmHg 84%
    11:00 +6°C° 0 mm 2 m/s 759 mmHg 82%
    12:00 +7°C° 0 mm 2 m/s 759 mmHg 80%
    13:00 +7°C° 0 mm 3 m/s 759 mmHg 78%
    14:00 +7°C° 0 mm 2 m/s 759 mmHg 79%
    15:00 +7°C° 0 mm 2 m/s 758 mmHg 80%
    16:00 +6°C° 0 mm 2 m/s 758 mmHg 82%
    17:00 +5°C° 0 mm 2 m/s 758 mmHg 83%
    18:00 +4°C° 0 mm 2 m/s 758 mmHg 85%
    19:00 +4°C° 0 mm 1 m/s 758 mmHg 86%
    20:00 +4°C° 0 mm 1 m/s 758 mmHg 86%
    21:00 +4°C° 0 mm 1 m/s 758 mmHg 86%
    22:00 +4°C° 0 mm 1 m/s 758 mmHg 86%
    23:00 +4°C° 0 mm 1 m/s 757 mmHg 85%
    Arată mai mult